This is the latest recevied weather packets stored in our database for station/object KE8DAF-15. If no packets are shown the sender has not sent any weather packets the latest 10 day(s).
| Time | Temp. | Humidity | Pressure | Rain* | Wind** | Luminosity | Snow |
|---|---|---|---|---|---|---|---|
| 1787782977 | 20° C | 98% | 994.4 hPa | 3.3 mm | - | - | - |
| 1787782677 | 20° C | 98% | 994.4 hPa | 7.37 mm | - | - | - |
| 1787782377 | 20° C | 99% | 994.5 hPa | 7.87 mm | - | - | - |
| 1787782077 | 19.44° C | 99% | 994.6 hPa | 10.41 mm | - | - | - |
| 1787781777 | 19.44° C | 99% | 994.5 hPa | 15.49 mm | - | - | - |
| 1787781478 | 18.89° C | 99% | 994.6 hPa | 16.76 mm | - | - | - |
| 1787781178 | 18.33° C | 99% | 994.6 hPa | 17.02 mm | - | - | - |
| 1787780878 | 18.33° C | 98% | 994.6 hPa | 17.27 mm | - | - | - |
| 1787780578 | 17.78° C | 98% | 994.5 hPa | 17.27 mm | - | - | - |
| 1787780278 | 17.78° C | 97% | 994.5 hPa | 17.27 mm | - | - | - |
| 1787779978 | 17.78° C | 96% | 994.5 hPa | 17.02 mm | - | - | - |
| 1787779678 | 18.33° C | 96% | 994.5 hPa | 16.51 mm | - | - | - |
| 1787779378 | 18.33° C | 95% | 994.4 hPa | 13.97 mm | - | - | - |
| 1787779078 | 18.33° C | 94% | 994.3 hPa | 9.91 mm | - | - | - |
| 1787778778 | 18.89° C | 93% | 994.2 hPa | 9.4 mm | - | - | - |
| 1787778478 | 19.44° C | 93% | 994.1 hPa | 6.86 mm | - | - | - |
| 1787778178 | 20° C | 92% | 994.2 hPa | 1.78 mm | - | - | - |
| 1787777878 | 20° C | 91% | 994.1 hPa | 0.51 mm | - | - | - |
| 1787777578 | 20.56° C | 90% | 994.1 hPa | 0.25 mm | - | - | - |
| 1787777278 | 20.56° C | 89% | 994.1 hPa | 0 mm | - | - | - |
| 1787776978 | 20.56° C | 88% | 993.9 hPa | 0 mm | - | - | - |
| 1787776678 | 20.56° C | 88% | 993.8 hPa | 0 mm | - | - | - |
| 1787776378 | 20.56° C | 87% | 993.8 hPa | 0 mm | - | - | - |
| 1787776078 | 21.11° C | 87% | 994.2 hPa | 0 mm | - | - | - |
| 1787775778 | 21.11° C | 87% | 994.1 hPa | 0 mm | - | - | - |
* Rain latest hour (hover to see other rain measurements)
** Current wind speed in m/s (hover to see current wind gust speed)